Time,TemperatureF,DewpointF,PressureIn,WindDirection,WindDirectionDegrees,WindSpeedMPH,WindSpeedGustMPH,Humidity,HourlyPrecipIn,Conditions,Clouds,dailyrainin,SoftwareType,DateUTC
2013-04-23 00:00:00,34.7,16.5,30.30,North,0,0.4,1.1,47,0.00,,,0.00,WUHU216HW,2013-04-23 07:00:00,
2013-04-23 00:05:00,34.6,16.3,30.30,NNW,338,1.1,1.6,47,0.00,,,0.00,WUHU216HW,2013-04-23 07:05:00,
2013-04-23 00:10:00,34.7,16.5,30.30,North,0,0.7,2.2,47,0.00,,,0.00,WUHU216HW,2013-04-23 07:10:00,
2013-04-23 00:15:00,34.7,16.5,30.30,NW,315,1.6,2.2,47,0.00,,,0.00,WUHU216HW,2013-04-23 07:15:00,
2013-04-23 00:20:00,34.7,16.5,30.30,North,0,1.8,1.8,47,0.00,,,0.00,WUHU216HW,2013-04-23 07:20:00,
2013-04-23 00:25:00,34.7,16.5,30.30,North,0,0.2,2.5,47,0.00,,,0.00,WUHU216HW,2013-04-23 07:25:00,
2013-04-23 00:30:00,34.7,16.5,30.30,North,0,1.1,2.5,47,0.00,,,0.00,WUHU216HW,2013-04-23 07:30:00,
2013-04-23 00:35:00,34.7,16.5,30.30,NNE,23,1.1,1.3,47,0.00,,,0.00,WUHU216HW,2013-04-23 07:35:00,
2013-04-23 00:40:00,34.6,16.3,30.30,North,0,0.2,1.1,47,0.00,,,0.00,WUHU216HW,2013-04-23 07:40:00,
2013-04-23 00:45:00,34.6,16.3,30.30,North,0,1.1,2.5,47,0.00,,,0.00,WUHU216HW,2013-04-23 07:45:00,
2013-04-23 00:50:00,34.6,15.3,30.30,NNW,338,0.7,2.5,45,0.00,,,0.00,WUHU216HW,2013-04-23 07:50:00,
2013-04-23 00:55:00,34.7,15.9,30.30,North,0,1.1,2.0,46,0.00,,,0.00,WUHU216HW,2013-04-23 07:55:00,
2013-04-23 01:00:00,34.7,15.9,30.30,North,0,1.8,2.0,46,0.00,,,0.00,WUHU216HW,2013-04-23 08:00:00,
2013-04-23 01:05:00,34.6,15.8,30.30,NNW,338,0.7,1.8,46,0.00,,,0.00,WUHU216HW,2013-04-23 08:05:00,
2013-04-23 01:10:00,34.4,15.6,30.30,North,0,1.3,2.0,46,0.00,,,0.00,WUHU216HW,2013-04-23 08:10:00,
2013-04-23 01:15:00,34.4,16.1,30.30,North,0,1.8,2.0,47,0.00,,,0.00,WUHU216HW,2013-04-23 08:15:00,
2013-04-23 01:21:00,34.2,15.9,30.30,North,0,0.4,1.8,47,0.00,,,0.00,WUHU216HW,2013-04-23 08:21:00,
2013-04-23 01:26:00,34.2,15.9,30.30,North,0,1.1,1.6,47,0.00,,,0.00,WUHU216HW,2013-04-23 08:26:00,
2013-04-23 01:31:00,34.2,15.9,30.30,North,0,0.9,1.3,47,0.00,,,0.00,WUHU216HW,2013-04-23 08:31:00,
2013-04-23 01:36:00,34.0,15.8,30.30,NNW,338,1.6,1.6,47,0.00,,,0.00,WUHU216HW,2013-04-23 08:36:00,
2013-04-23 01:41:00,34.0,15.8,30.30,North,0,0.4,1.6,47,0.00,,,0.00,WUHU216HW,2013-04-23 08:41:00,
2013-04-23 01:46:00,33.8,16.1,30.30,NNW,338,1.3,1.3,48,0.00,,,0.00,WUHU216HW,2013-04-23 08:46:00,
2013-04-23 01:51:00,33.7,15.9,30.30,NNW,338,0.0,1.3,48,0.00,,,0.00,WUHU216HW,2013-04-23 08:51:00,
2013-04-23 01:56:00,33.7,15.9,30.30,North,0,0.2,0.4,48,0.00,,,0.00,WUHU216HW,2013-04-23 08:56:00,
2013-04-23 02:01:00,33.5,15.8,30.30,North,0,0.4,0.9,48,0.00,,,0.00,WUHU216HW,2013-04-23 09:01:00,
2013-04-23 02:06:00,33.5,15.8,30.29,West,270,1.1,1.1,48,0.00,,,0.00,WUHU216HW,2013-04-23 09:06:00,
2013-04-23 02:11:00,32.8,15.1,30.29,West,270,1.1,1.8,48,0.00,,,0.00,WUHU216HW,2013-04-23 09:11:00,
2013-04-23 02:16:00,32.0,14.5,30.29,WNW,293,0.0,1.8,48,0.00,,,0.00,WUHU216HW,2013-04-23 09:16:00,
2013-04-23 02:21:00,31.9,14.9,30.29,NW,315,0.2,0.7,49,0.00,,,0.00,WUHU216HW,2013-04-23 09:21:00,
2013-04-23 02:26:00,31.7,14.7,30.29,NW,315,0.2,0.4,49,0.00,,,0.00,WUHU216HW,2013-04-23 09:26:00,
2013-04-23 02:31:00,31.3,14.3,30.28,NNW,338,0.2,0.4,49,0.00,,,0.00,WUHU216HW,2013-04-23 09:31:00,
2013-04-23 02:37:00,30.8,14.3,30.28,NNW,338,0.0,0.2,50,0.00,,,0.00,WUHU216HW,2013-04-23 09:37:00,
2013-04-23 02:42:00,30.6,15.0,30.28,WNW,293,0.7,0.7,52,0.00,,,0.00,WUHU216HW,2013-04-23 09:42:00,
2013-04-23 02:47:00,30.4,14.4,30.28,WNW,293,0.0,0.7,51,0.00,,,0.00,WUHU216HW,2013-04-23 09:47:00,
2013-04-23 02:52:00,30.4,14.9,30.27,WSW,248,0.0,0.4,52,0.00,,,0.00,WUHU216HW,2013-04-23 09:52:00,
2013-04-23 02:57:00,30.4,14.4,30.27,West,270,0.4,0.4,51,0.00,,,0.00,WUHU216HW,2013-04-23 09:57:00,
2013-04-23 03:02:00,29.9,14.4,30.27,NW,315,0.0,1.1,52,0.00,,,0.00,WUHU216HW,2013-04-23 10:02:00,
2013-04-23 03:07:00,29.9,14.4,30.27,North,0,0.4,1.1,52,0.00,,,0.00,WUHU216HW,2013-04-23 10:07:00,
2013-04-23 03:12:00,30.4,14.9,30.27,North,0,0.4,0.9,52,0.00,,,0.00,WUHU216HW,2013-04-23 10:12:00,
2013-04-23 03:17:00,31.0,15.4,30.27,North,0,1.3,1.3,52,0.00,,,0.00,WUHU216HW,2013-04-23 10:17:00,
2013-04-23 03:22:00,31.3,15.7,30.27,North,0,1.1,1.3,52,0.00,,,0.00,WUHU216HW,2013-04-23 10:22:00,
2013-04-23 03:27:00,31.5,15.8,30.26,North,0,0.4,1.1,52,0.00,,,0.00,WUHU216HW,2013-04-23 10:27:00,
2013-04-23 03:32:00,31.7,16.0,30.27,North,0,0.9,0.9,52,0.00,,,0.00,WUHU216HW,2013-04-23 10:32:00,
2013-04-23 03:37:00,31.7,16.0,30.26,North,0,0.2,0.9,52,0.00,,,0.00,WUHU216HW,2013-04-23 10:37:00,
2013-04-23 03:42:00,31.7,15.6,30.27,North,0,0.0,0.9,51,0.00,,,0.00,WUHU216HW,2013-04-23 10:42:00,
2013-04-23 03:48:00,30.8,14.8,30.27,North,0,0.4,0.7,51,0.00,,,0.00,WUHU216HW,2013-04-23 10:48:00,
2013-04-23 03:53:00,30.4,14.9,30.26,NW,315,0.0,0.7,52,0.00,,,0.00,WUHU216HW,2013-04-23 10:53:00,
2013-04-23 03:58:00,29.9,14.4,30.26,WNW,293,0.4,0.4,52,0.00,,,0.00,WUHU216HW,2013-04-23 10:58:00,
2013-04-23 04:03:00,29.3,13.9,30.26,West,270,0.7,0.7,52,0.00,,,0.00,WUHU216HW,2013-04-23 11:03:00,
2013-04-23 04:08:00,29.0,13.6,30.26,NW,315,0.4,1.1,52,0.00,,,0.00,WUHU216HW,2013-04-23 11:08:00,
2013-04-23 04:13:00,28.6,13.2,30.26,WNW,293,0.4,1.1,52,0.00,,,0.00,WUHU216HW,2013-04-23 11:13:00,
2013-04-23 04:18:00,28.6,13.2,30.26,NNE,23,0.0,1.1,52,0.00,,,0.00,WUHU216HW,2013-04-23 11:18:00,
2013-04-23 04:23:00,28.8,13.4,30.26,SSE,158,0.2,0.2,52,0.00,,,0.00,WUHU216HW,2013-04-23 11:23:00,
2013-04-23 04:28:00,28.8,13.4,30.26,SSE,158,0.0,0.2,52,0.00,,,0.00,WUHU216HW,2013-04-23 11:28:00,
2013-04-23 04:33:00,28.8,13.4,30.26,NNW,338,0.2,0.4,52,0.00,,,0.00,WUHU216HW,2013-04-23 11:33:00,
2013-04-23 04:38:00,28.8,13.4,30.26,NNW,338,0.0,0.4,52,0.00,,,0.00,WUHU216HW,2013-04-23 11:38:00,
2013-04-23 04:43:00,28.8,13.4,30.26,NNW,338,0.0,0.2,52,0.00,,,0.00,WUHU216HW,2013-04-23 11:43:00,
2013-04-23 04:48:00,28.8,13.8,30.26,NNW,338,0.0,0.0,53,0.00,,,0.00,WUHU216HW,2013-04-23 11:48:00,
2013-04-23 04:54:00,28.6,13.2,30.25,NNW,338,0.0,0.0,52,0.00,,,0.00,WUHU216HW,2013-04-23 11:54:00,
2013-04-23 04:59:00,28.3,13.3,30.25,NNW,338,0.0,0.2,53,0.00,,,0.00,WUHU216HW,2013-04-23 11:59:00,
2013-04-23 05:04:00,28.1,13.2,30.25,NNW,338,0.2,0.2,53,0.00,,,0.00,WUHU216HW,2013-04-23 12:04:00,
2013-04-23 05:09:00,27.7,12.8,30.25,West,270,0.7,0.7,53,0.00,,,0.00,WUHU216HW,2013-04-23 12:09:00,
2013-04-23 05:14:00,27.4,12.0,30.25,West,270,0.4,0.7,52,0.00,,,0.00,WUHU216HW,2013-04-23 12:14:00,
2013-04-23 05:19:00,27.2,11.8,30.25,WNW,293,0.2,0.7,52,0.00,,,0.00,WUHU216HW,2013-04-23 12:19:00,
2013-04-23 05:24:00,27.2,11.8,30.25,NW,315,0.9,0.9,52,0.00,,,0.00,WUHU216HW,2013-04-23 12:24:00,
2013-04-23 05:29:00,27.2,11.0,30.25,West,270,0.9,1.1,50,0.00,,,0.00,WUHU216HW,2013-04-23 12:29:00,
2013-04-23 05:34:00,27.4,11.2,30.25,North,0,0.0,1.1,50,0.00,,,0.00,WUHU216HW,2013-04-23 12:34:00,
2013-04-23 05:39:00,27.7,11.5,30.25,NW,315,0.4,0.4,50,0.00,,,0.00,WUHU216HW,2013-04-23 12:39:00,
2013-04-23 05:44:00,27.7,11.0,30.25,NNW,338,0.2,1.1,49,0.00,,,0.00,WUHU216HW,2013-04-23 12:44:00,
2013-04-23 05:49:00,27.9,10.7,30.25,NW,315,0.4,1.1,48,0.00,,,0.00,WUHU216HW,2013-04-23 12:49:00,
2013-04-23 05:54:00,28.1,10.4,30.25,NW,315,0.2,1.8,47,0.00,,,0.00,WUHU216HW,2013-04-23 12:54:00,
2013-04-23 05:59:00,28.3,11.1,30.25,West,270,0.2,1.8,48,0.00,,,0.00,WUHU216HW,2013-04-23 12:59:00,
2013-04-23 06:04:00,28.4,11.3,30.25,NNW,338,0.2,1.6,48,0.00,,,0.00,WUHU216HW,2013-04-23 13:04:00,
2013-04-23 06:10:00,28.4,11.3,30.25,NW,315,0.0,0.4,48,0.00,,,0.00,WUHU216HW,2013-04-23 13:10:00,
2013-04-23 06:15:00,28.4,11.3,30.24,NW,315,0.4,1.1,48,0.00,,,0.00,WUHU216HW,2013-04-23 13:15:00,
2013-04-23 06:20:00,28.4,10.7,30.24,NW,315,1.1,1.3,47,0.00,,,0.00,WUHU216HW,2013-04-23 13:20:00,
2013-04-23 06:25:00,28.4,10.3,30.24,NNW,338,0.2,2.0,46,0.00,,,0.00,WUHU216HW,2013-04-23 13:25:00,
2013-04-23 06:30:00,28.4,10.3,30.24,NW,315,1.3,2.0,46,0.00,,,0.00,WUHU216HW,2013-04-23 13:30:00,
2013-04-23 06:35:00,28.3,10.1,30.24,NW,315,0.9,1.3,46,0.00,,,0.00,WUHU216HW,2013-04-23 13:35:00,
2013-04-23 06:40:00,28.3,10.5,30.24,West,270,0.4,1.1,47,0.00,,,0.00,WUHU216HW,2013-04-23 13:40:00,
2013-04-23 06:45:00,28.1,9.9,30.24,NW,315,0.2,0.4,46,0.00,,,0.00,WUHU216HW,2013-04-23 13:45:00,
2013-04-23 06:50:00,27.7,9.0,30.24,WNW,293,0.4,0.9,45,0.00,,,0.00,WUHU216HW,2013-04-23 13:50:00,
2013-04-23 06:55:00,27.7,9.0,30.24,NW,315,0.4,1.1,45,0.00,,,0.00,WUHU216HW,2013-04-23 13:55:00,
2013-04-23 07:00:00,27.7,9.0,30.24,NNW,338,0.2,1.1,45,0.00,,,0.00,WUHU216HW,2013-04-23 14:00:00,
2013-04-23 07:05:00,28.1,9.4,30.24,NW,315,0.0,1.1,45,0.00,,,0.00,WUHU216HW,2013-04-23 14:05:00,
2013-04-23 07:10:00,28.3,9.5,30.24,WNW,293,0.0,1.1,45,0.00,,,0.00,WUHU216HW,2013-04-23 14:10:00,
2013-04-23 07:15:00,28.3,10.1,30.24,SSW,203,0.4,0.9,46,0.00,,,0.00,WUHU216HW,2013-04-23 14:15:00,
2013-04-23 07:20:00,28.4,10.7,30.24,WSW,248,0.9,1.1,47,0.00,,,0.00,WUHU216HW,2013-04-23 14:20:00,
2013-04-23 07:25:00,28.4,11.3,30.24,WSW,248,4.0,4.0,48,0.00,,,0.00,WUHU216HW,2013-04-23 14:25:00,
2013-04-23 07:31:00,28.4,11.3,30.23,WSW,248,0.0,4.0,48,0.00,,,0.00,WUHU216HW,2013-04-23 14:31:00,
2013-04-23 07:36:00,28.4,12.2,30.23,West,270,0.2,2.2,50,0.00,,,0.00,WUHU216HW,2013-04-23 14:36:00,
2013-04-23 07:41:00,28.8,12.6,30.23,SSW,203,1.8,1.8,50,0.00,,,0.00,WUHU216HW,2013-04-23 14:41:00,
2013-04-23 07:46:00,29.2,13.3,30.23,SW,225,0.4,1.8,51,0.00,,,0.00,WUHU216HW,2013-04-23 14:46:00,
2013-04-23 07:51:00,29.2,13.3,30.23,SSW,203,0.2,1.1,51,0.00,,,0.00,WUHU216HW,2013-04-23 14:51:00,
2013-04-23 07:56:00,29.5,13.6,30.23,WSW,248,0.0,0.2,51,0.00,,,0.00,WUHU216HW,2013-04-23 14:56:00,
2013-04-23 08:01:00,29.9,14.0,30.23,SSW,203,0.4,1.8,51,0.00,,,0.00,WUHU216HW,2013-04-23 15:01:00,
2013-04-23 08:06:00,30.2,14.7,30.23,SSW,203,0.4,1.8,52,0.00,,,0.00,WUHU216HW,2013-04-23 15:06:00,
2013-04-23 08:11:00,30.6,15.0,30.23,SE,135,0.2,1.6,52,0.00,,,0.00,WUHU216HW,2013-04-23 15:11:00,
2013-04-23 08:16:00,31.1,15.5,30.23,WSW,248,1.1,2.0,52,0.00,,,0.00,WUHU216HW,2013-04-23 15:16:00,
2013-04-23 08:21:00,31.5,15.8,30.23,WSW,248,1.1,3.1,52,0.00,,,0.00,WUHU216HW,2013-04-23 15:21:00,
2013-04-23 08:26:00,32.2,16.9,30.23,SSW,203,2.5,3.4,53,0.00,,,0.00,WUHU216HW,2013-04-23 15:26:00,
2013-04-23 08:31:00,32.9,17.6,30.23,SW,225,2.7,5.8,53,0.00,,,0.00,WUHU216HW,2013-04-23 15:31:00,
2013-04-23 08:36:00,33.7,17.8,30.22,ESE,113,1.8,5.8,52,0.00,,,0.00,WUHU216HW,2013-04-23 15:36:00,
2013-04-23 08:41:00,34.6,18.7,30.22,South,180,2.5,3.8,52,0.00,,,0.00,WUHU216HW,2013-04-23 15:41:00,
2013-04-23 08:46:00,35.1,19.3,30.22,WSW,248,0.2,2.9,52,0.00,,,0.00,WUHU216HW,2013-04-23 15:46:00,
2013-04-23 08:51:00,35.8,19.5,30.22,SW,225,2.0,2.5,51,0.00,,,0.00,WUHU216HW,2013-04-23 15:51:00,
2013-04-23 08:56:00,36.5,19.7,30.22,SW,225,5.6,5.6,50,0.00,,,0.00,WUHU216HW,2013-04-23 15:56:00,
2013-04-23 09:01:00,37.1,19.7,30.22,SW,225,3.4,6.3,49,0.00,,,0.00,WUHU216HW,2013-04-23 16:01:00,
2013-04-23 09:06:00,37.8,20.4,30.21,SW,225,5.8,6.3,49,0.00,,,0.00,WUHU216HW,2013-04-23 16:06:00,
2013-04-23 09:11:00,38.3,20.3,30.21,SW,225,2.5,6.3,48,0.00,,,0.00,WUHU216HW,2013-04-23 16:11:00,
2013-04-23 09:16:00,38.9,20.3,30.21,SW,225,2.5,6.3,47,0.00,,,0.00,WUHU216HW,2013-04-23 16:16:00,
2013-04-23 09:21:00,39.4,20.3,30.21,SW,225,1.1,3.6,46,0.00,,,0.00,WUHU216HW,2013-04-23 16:21:00,
2013-04-23 09:27:00,40.1,21.4,30.21,South,180,4.3,4.3,47,0.00,,,0.00,WUHU216HW,2013-04-23 16:27:00,
2013-04-23 09:32:00,40.9,21.5,30.21,SSE,158,4.3,6.0,46,0.00,,,0.00,WUHU216HW,2013-04-23 16:32:00,
2013-04-23 09:37:00,41.2,21.3,30.21,SSE,158,3.4,6.0,45,0.00,,,0.00,WUHU216HW,2013-04-23 16:37:00,
2013-04-23 09:42:00,41.8,21.9,30.21,SSE,158,4.5,5.4,45,0.00,,,0.00,WUHU216HW,2013-04-23 16:42:00,
2013-04-23 09:47:00,42.1,21.2,30.20,SSW,203,4.9,6.5,43,0.00,,,0.00,WUHU216HW,2013-04-23 16:47:00,
2013-04-23 09:52:00,42.5,21.4,30.20,SE,135,1.8,6.5,43,0.00,,,0.00,WUHU216HW,2013-04-23 16:52:00,
2013-04-23 09:57:00,42.8,20.7,30.20,SSW,203,3.6,5.4,41,0.00,,,0.00,WUHU216HW,2013-04-23 16:57:00,
2013-04-23 10:02:00,43.4,20.6,30.20,SSE,158,4.0,5.4,40,0.00,,,0.00,WUHU216HW,2013-04-23 17:02:00,
2013-04-23 10:07:00,43.7,21.0,30.20,ESE,113,5.8,5.8,40,0.00,,,0.00,WUHU216HW,2013-04-23 17:07:00,
2013-04-23 10:12:00,44.3,18.8,30.20,SSE,158,3.4,5.8,36,0.00,,,0.00,WUHU216HW,2013-04-23 17:12:00,
2013-04-23 10:17:00,44.8,19.3,30.20,SSW,203,4.0,5.8,36,0.00,,,0.00,WUHU216HW,2013-04-23 17:17:00,
2013-04-23 10:22:00,45.4,19.8,30.20,SSW,203,1.8,4.7,36,0.00,,,0.00,WUHU216HW,2013-04-23 17:22:00,
2013-04-23 10:27:00,45.5,17.9,30.20,SSW,203,3.4,6.3,33,0.00,,,0.00,WUHU216HW,2013-04-23 17:27:00,
2013-04-23 10:32:00,45.9,20.3,30.19,South,180,5.4,6.3,36,0.00,,,0.00,WUHU216HW,2013-04-23 17:32:00,
2013-04-23 10:37:00,45.9,20.3,30.19,South,180,4.7,5.4,36,0.00,,,0.00,WUHU216HW,2013-04-23 17:37:00,
2013-04-23 10:42:00,46.4,19.5,30.19,South,180,1.8,5.1,34,0.00,,,0.00,WUHU216HW,2013-04-23 17:42:00,
2013-04-23 10:47:00,46.8,19.1,30.19,SE,135,4.0,4.0,33,0.00,,,0.00,WUHU216HW,2013-04-23 17:47:00,
2013-04-23 10:52:00,47.2,18.7,30.19,SSW,203,4.7,6.3,32,0.00,,,0.00,WUHU216HW,2013-04-23 17:52:00,
2013-04-23 10:57:00,47.9,20.7,30.19,South,180,2.2,6.3,34,0.00,,,0.00,WUHU216HW,2013-04-23 17:57:00,
2013-04-23 11:02:00,48.1,20.9,30.19,SW,225,2.0,4.0,34,0.00,,,0.00,WUHU216HW,2013-04-23 18:02:00,
2013-04-23 11:07:00,48.6,20.7,30.19,SW,225,2.5,4.0,33,0.00,,,0.00,WUHU216HW,2013-04-23 18:07:00,
2013-04-23 11:12:00,49.0,20.3,30.19,SSE,158,2.5,4.0,32,0.00,,,0.00,WUHU216HW,2013-04-23 18:12:00,
2013-04-23 11:17:00,49.1,20.4,30.18,WSW,248,0.4,3.4,32,0.00,,,0.00,WUHU216HW,2013-04-23 18:17:00,
2013-04-23 11:22:00,49.3,20.6,30.18,SSE,158,2.2,4.7,32,0.00,,,0.00,WUHU216HW,2013-04-23 18:22:00,
2013-04-23 11:27:00,49.7,20.2,30.18,ESE,113,1.1,4.7,31,0.00,,,0.00,WUHU216HW,2013-04-23 18:27:00,
2013-04-23 11:32:00,49.7,16.7,30.18,NW,315,1.1,2.7,27,0.00,,,0.00,WUHU216HW,2013-04-23 18:32:00,
2013-04-23 11:37:00,49.7,18.6,30.17,West,270,1.1,2.7,29,0.00,,,0.00,WUHU216HW,2013-04-23 18:37:00,
2013-04-23 11:42:00,50.0,18.9,30.18,South,180,2.0,2.5,29,0.00,,,0.00,WUHU216HW,2013-04-23 18:42:00,
2013-04-23 11:47:00,50.9,22.0,30.17,SSW,203,4.0,4.0,32,0.00,,,0.00,WUHU216HW,2013-04-23 18:47:00,
2013-04-23 11:52:00,51.7,22.0,30.17,South,180,3.4,4.0,31,0.00,,,0.00,WUHU216HW,2013-04-23 18:52:00,
2013-04-23 11:57:00,52.6,21.2,30.17,West,270,3.4,3.6,29,0.00,,,0.00,WUHU216HW,2013-04-23 18:57:00,
2013-04-23 12:02:00,52.4,15.3,30.17,WNW,293,4.5,4.5,23,0.00,,,0.00,WUHU216HW,2013-04-23 19:02:00,
2013-04-23 12:07:00,52.0,13.1,30.17,SW,225,1.8,4.5,21,0.00,,,0.00,WUHU216HW,2013-04-23 19:07:00,
2013-04-23 12:12:00,52.0,16.9,30.17,SW,225,0.7,3.4,25,0.00,,,0.00,WUHU216HW,2013-04-23 19:12:00,
2013-04-23 12:17:00,52.6,17.4,30.16,NW,315,2.5,3.8,25,0.00,,,0.00,WUHU216HW,2013-04-23 19:17:00,
2013-04-23 12:23:00,53.5,18.1,30.16,ENE,68,3.4,3.8,25,0.00,,,0.00,WUHU216HW,2013-04-23 19:23:00,
2013-04-23 12:28:00,53.6,13.5,30.16,NW,315,1.1,3.6,20,0.00,,,0.00,WUHU216HW,2013-04-23 19:28:00,
2013-04-23 12:33:00,53.6,14.5,30.16,NNW,338,1.8,4.7,21,0.00,,,0.00,WUHU216HW,2013-04-23 19:33:00,
2013-04-23 12:38:00,53.6,13.5,30.15,NNW,338,1.6,4.7,20,0.00,,,0.00,WUHU216HW,2013-04-23 19:38:00,
2013-04-23 12:43:00,54.0,13.9,30.15,West,270,2.0,4.3,20,0.00,,,0.00,WUHU216HW,2013-04-23 19:43:00,
2013-04-23 12:48:00,54.2,15.0,30.15,NW,315,4.3,9.2,21,0.00,,,0.00,WUHU216HW,2013-04-23 19:48:00,
2013-04-23 12:53:00,54.5,15.2,30.15,ENE,68,2.7,9.2,21,0.00,,,0.00,WUHU216HW,2013-04-23 19:53:00,
2013-04-23 12:58:00,54.7,9.9,30.14,WNW,293,3.8,5.4,17,0.00,,,0.00,WUHU216HW,2013-04-23 19:58:00,
2013-04-23 13:03:00,54.7,14.5,30.14,NNW,338,3.1,5.4,20,0.00,,,0.00,WUHU216HW,2013-04-23 20:03:00,
2013-04-23 13:08:00,54.7,14.5,30.14,South,180,2.2,4.9,20,0.00,,,0.00,WUHU216HW,2013-04-23 20:08:00,
2013-04-23 13:13:00,55.1,8.7,30.13,WSW,248,4.7,4.9,16,0.00,,,0.00,WUHU216HW,2013-04-23 20:13:00,
2013-04-23 13:18:00,55.3,11.9,30.14,WNW,293,2.7,4.7,18,0.00,,,0.00,WUHU216HW,2013-04-23 20:18:00,
2013-04-23 13:23:00,55.3,10.4,30.14,NW,315,2.5,4.0,17,0.00,,,0.00,WUHU216HW,2013-04-23 20:23:00,
2013-04-23 13:28:00,55.3,10.4,30.13,SW,225,2.2,4.7,17,0.00,,,0.00,WUHU216HW,2013-04-23 20:28:00,
2013-04-23 13:33:00,55.4,12.1,30.13,ESE,113,1.1,6.9,18,0.00,,,0.00,WUHU216HW,2013-04-23 20:33:00,
2013-04-23 13:38:00,55.8,4.7,30.13,NNE,23,2.5,6.9,13,0.00,,,0.00,WUHU216HW,2013-04-23 20:38:00,
2013-04-23 13:43:00,56.0,11.0,30.13,WNW,293,0.4,4.7,17,0.00,,,0.00,WUHU216HW,2013-04-23 20:43:00,
2013-04-23 13:48:00,56.5,14.4,30.13,SSE,158,3.8,4.7,19,0.00,,,0.00,WUHU216HW,2013-04-23 20:48:00,
2013-04-23 13:53:00,56.7,11.5,30.12,ENE,68,3.4,3.8,17,0.00,,,0.00,WUHU216HW,2013-04-23 20:53:00,
2013-04-23 13:58:00,56.3,3.5,30.12,NW,315,4.7,10.1,12,0.00,,,0.00,WUHU216HW,2013-04-23 20:58:00,
2013-04-23 14:03:00,56.2,3.4,30.12,West,270,6.5,10.1,12,0.00,,,0.00,WUHU216HW,2013-04-23 21:03:00,
2013-04-23 14:08:00,56.9,10.1,30.12,South,180,2.0,6.5,16,0.00,,,0.00,WUHU216HW,2013-04-23 21:08:00,
2013-04-23 14:13:00,57.6,12.3,30.12,ESE,113,2.5,5.6,17,0.00,,,0.00,WUHU216HW,2013-04-23 21:13:00,
2013-04-23 14:18:00,58.0,9.4,30.12,North,0,2.5,5.4,15,0.00,,,0.00,WUHU216HW,2013-04-23 21:18:00,
2013-04-23 14:23:00,57.6,6.0,30.12,NW,315,3.4,6.0,13,0.00,,,0.00,WUHU216HW,2013-04-23 21:23:00,
2013-04-23 14:28:00,57.8,6.1,30.12,North,0,3.8,9.6,13,0.00,,,0.00,WUHU216HW,2013-04-23 21:28:00,
2013-04-23 14:33:00,58.0,4.8,30.12,SW,225,2.0,9.6,12,0.00,,,0.00,WUHU216HW,2013-04-23 21:33:00,
2013-04-23 14:38:00,58.1,3.3,30.12,NNW,338,7.6,7.6,11,0.00,,,0.00,WUHU216HW,2013-04-23 21:38:00,
2013-04-23 14:43:00,58.7,10.0,30.12,SSW,203,2.5,7.6,15,0.00,,,0.00,WUHU216HW,2013-04-23 21:43:00,
2013-04-23 14:48:00,58.7,5.3,30.12,WNW,293,5.1,6.5,12,0.00,,,0.00,WUHU216HW,2013-04-23 21:48:00,
2013-04-23 14:54:00,58.3,9.7,30.12,South,180,1.6,6.7,15,0.00,,,0.00,WUHU216HW,2013-04-23 21:54:00,
2013-04-23 14:59:00,58.7,11.5,30.12,NE,45,2.0,6.7,16,0.00,,,0.00,WUHU216HW,2013-04-23 21:59:00,
2013-04-23 15:04:00,58.7,10.0,30.12,NW,315,2.2,6.5,15,0.00,,,0.00,WUHU216HW,2013-04-23 22:04:00,
2013-04-23 15:09:00,58.9,8.6,30.12,NNW,338,1.3,5.8,14,0.00,,,0.00,WUHU216HW,2013-04-23 22:09:00,
2013-04-23 15:14:00,59.0,10.3,30.11,NE,45,1.8,4.9,15,0.00,,,0.00,WUHU216HW,2013-04-23 22:14:00,
2013-04-23 15:19:00,59.0,10.3,30.11,ENE,68,3.6,5.6,15,0.00,,,0.00,WUHU216HW,2013-04-23 22:19:00,
2013-04-23 15:24:00,58.9,10.1,30.11,NNE,23,4.5,6.9,15,0.00,,,0.00,WUHU216HW,2013-04-23 22:24:00,
2013-04-23 15:29:00,59.0,10.3,30.11,ESE,113,4.0,6.9,15,0.00,,,0.00,WUHU216HW,2013-04-23 22:29:00,
2013-04-23 15:34:00,59.4,10.5,30.11,ENE,68,1.8,4.7,15,0.00,,,0.00,WUHU216HW,2013-04-23 22:34:00,
2013-04-23 15:39:00,59.6,10.7,30.10,SE,135,5.4,6.3,15,0.00,,,0.00,WUHU216HW,2013-04-23 22:39:00,
2013-04-23 15:44:00,59.4,12.2,30.10,SE,135,2.0,8.3,16,0.00,,,0.00,WUHU216HW,2013-04-23 22:44:00,
2013-04-23 15:49:00,59.6,10.7,30.10,East,90,5.4,8.3,15,0.00,,,0.00,WUHU216HW,2013-04-23 22:49:00,
2013-04-23 15:54:00,59.6,10.7,30.10,ESE,113,6.3,7.6,15,0.00,,,0.00,WUHU216HW,2013-04-23 22:54:00,
2013-04-23 16:00:00,59.6,10.7,30.09,SSE,158,3.1,7.4,15,0.00,,,0.00,WUHU216HW,2013-04-23 23:00:00,
2013-04-23 16:05:00,59.8,12.4,30.10,North,0,1.8,4.9,16,0.00,,,0.00,WUHU216HW,2013-04-23 23:05:00,
2013-04-23 16:10:00,59.6,10.7,30.09,East,90,2.7,5.4,15,0.00,,,0.00,WUHU216HW,2013-04-23 23:10:00,
2013-04-23 16:15:00,59.8,12.4,30.09,WSW,248,1.6,5.4,16,0.00,,,0.00,WUHU216HW,2013-04-23 23:15:00,
2013-04-23 16:20:00,59.8,10.9,30.09,ENE,68,2.0,3.4,15,0.00,,,0.00,WUHU216HW,2013-04-23 23:20:00,
2013-04-23 16:25:00,59.8,12.4,30.09,NNE,23,3.8,3.8,16,0.00,,,0.00,WUHU216HW,2013-04-23 23:25:00,
2013-04-23 16:30:00,59.8,14.0,30.09,WSW,248,1.6,4.7,17,0.00,,,0.00,WUHU216HW,2013-04-23 23:30:00,
2013-04-23 16:35:00,59.9,12.6,30.09,North,0,2.7,4.7,16,0.00,,,0.00,WUHU216HW,2013-04-23 23:35:00,
2013-04-23 16:40:00,59.6,10.7,30.09,NE,45,6.3,6.3,15,0.00,,,0.00,WUHU216HW,2013-04-23 23:40:00,
2013-04-23 16:45:00,59.6,12.2,30.09,ESE,113,1.3,6.3,16,0.00,,,0.00,WUHU216HW,2013-04-23 23:45:00,
2013-04-23 16:50:00,59.6,12.2,30.09,ENE,68,3.1,5.4,16,0.00,,,0.00,WUHU216HW,2013-04-23 23:50:00,
2013-04-23 16:55:00,59.0,7.2,30.09,ENE,68,6.3,6.3,13,0.00,,,0.00,WUHU216HW,2013-04-23 23:55:00,
2013-04-23 17:00:00,58.9,11.7,30.08,ESE,113,2.2,6.3,16,0.00,,,0.00,WUHU216HW,2013-04-24 00:00:00,
2013-04-23 17:05:00,59.0,10.3,30.08,North,0,7.8,7.8,15,0.00,,,0.00,WUHU216HW,2013-04-24 00:05:00,
2013-04-23 17:11:00,59.4,12.2,30.09,North,0,3.6,7.8,16,0.00,,,0.00,WUHU216HW,2013-04-24 00:11:00,
2013-04-23 17:16:00,59.8,12.4,30.09,SSW,203,2.7,3.6,16,0.00,,,0.00,WUHU216HW,2013-04-24 00:16:00,
2013-04-23 17:21:00,60.1,14.3,30.08,ESE,113,4.3,4.3,17,0.00,,,0.00,WUHU216HW,2013-04-24 00:21:00,
2013-04-23 17:26:00,59.8,14.0,30.08,North,0,2.5,5.4,17,0.00,,,0.00,WUHU216HW,2013-04-24 00:26:00,
2013-04-23 17:31:00,58.9,13.2,30.08,ENE,68,2.2,5.4,17,0.00,,,0.00,WUHU216HW,2013-04-24 00:31:00,
2013-04-23 17:36:00,58.7,13.1,30.08,SW,225,1.8,5.8,17,0.00,,,0.00,WUHU216HW,2013-04-24 00:36:00,
2013-04-23 17:41:00,58.7,13.1,30.08,SE,135,1.8,5.8,17,0.00,,,0.00,WUHU216HW,2013-04-24 00:41:00,
2013-04-23 17:46:00,58.9,13.2,30.08,SW,225,4.7,5.4,17,0.00,,,0.00,WUHU216HW,2013-04-24 00:46:00,
2013-04-23 17:51:00,59.0,15.0,30.08,ENE,68,1.1,4.7,18,0.00,,,0.00,WUHU216HW,2013-04-24 00:51:00,
2013-04-23 17:56:00,59.0,13.3,30.08,North,0,3.8,4.3,17,0.00,,,0.00,WUHU216HW,2013-04-24 00:56:00,
2013-04-23 18:01:00,59.0,16.5,30.08,East,90,0.7,3.8,19,0.00,,,0.00,WUHU216HW,2013-04-24 01:01:00,
2013-04-23 18:06:00,58.9,13.2,30.09,SSE,158,1.1,3.1,17,0.00,,,0.00,WUHU216HW,2013-04-24 01:06:00,
2013-04-23 18:11:00,58.7,13.1,30.09,ESE,113,4.5,4.5,17,0.00,,,0.00,WUHU216HW,2013-04-24 01:11:00,
2013-04-23 18:16:00,58.1,14.2,30.09,NE,45,4.3,4.5,18,0.00,,,0.00,WUHU216HW,2013-04-24 01:16:00,
2013-04-23 18:21:00,57.4,12.1,30.09,ENE,68,6.0,7.4,17,0.00,,,0.00,WUHU216HW,2013-04-24 01:21:00,
2013-04-23 18:26:00,56.7,13.1,30.09,ESE,113,2.5,6.0,18,0.00,,,0.00,WUHU216HW,2013-04-24 01:26:00,
2013-04-23 18:31:00,56.3,12.8,30.09,ENE,68,1.8,4.7,18,0.00,,,0.00,WUHU216HW,2013-04-24 01:31:00,
2013-04-23 18:36:00,56.0,12.5,30.09,NNE,23,2.7,5.4,18,0.00,,,0.00,WUHU216HW,2013-04-24 01:36:00,
2013-04-23 18:41:00,55.8,15.4,30.10,ESE,113,3.4,5.6,20,0.00,,,0.00,WUHU216HW,2013-04-24 01:41:00,
2013-04-23 18:46:00,55.4,15.1,30.10,NNW,338,1.3,5.6,20,0.00,,,0.00,WUHU216HW,2013-04-24 01:46:00,
2013-04-23 18:51:00,55.1,14.8,30.10,NW,315,3.4,5.4,20,0.00,,,0.00,WUHU216HW,2013-04-24 01:51:00,
2013-04-23 18:57:00,54.7,14.5,30.10,SE,135,2.5,5.4,20,0.00,,,0.00,WUHU216HW,2013-04-24 01:57:00,
2013-04-23 19:02:00,54.5,14.3,30.10,NE,45,1.6,4.9,20,0.00,,,0.00,WUHU216HW,2013-04-24 02:02:00,
2013-04-23 19:07:00,54.4,15.1,30.10,NNE,23,6.3,6.3,21,0.00,,,0.00,WUHU216HW,2013-04-24 02:07:00,
2013-04-23 19:12:00,54.4,15.1,30.10,SSW,203,0.7,6.3,21,0.00,,,0.00,WUHU216HW,2013-04-24 02:12:00,
2013-04-23 19:17:00,53.8,15.6,30.10,SSE,158,0.4,5.4,22,0.00,,,0.00,WUHU216HW,2013-04-24 02:17:00,
2013-04-23 19:22:00,53.6,15.4,30.11,ESE,113,4.0,5.4,22,0.00,,,0.00,WUHU216HW,2013-04-24 02:22:00,
2013-04-23 19:27:00,52.9,14.9,30.11,SE,135,2.7,4.0,22,0.00,,,0.00,WUHU216HW,2013-04-24 02:27:00,
2013-04-23 19:32:00,52.4,14.4,30.11,ESE,113,1.8,4.0,22,0.00,,,0.00,WUHU216HW,2013-04-24 02:32:00,
2013-04-23 19:37:00,51.8,14.0,30.11,ENE,68,2.5,4.7,22,0.00,,,0.00,WUHU216HW,2013-04-24 02:37:00,
2013-04-23 19:43:00,51.7,14.8,30.12,NNE,23,3.1,4.7,23,0.00,,,0.00,WUHU216HW,2013-04-24 02:43:00,
2013-04-23 19:48:00,51.1,14.3,30.12,North,0,2.0,3.8,23,0.00,,,0.00,WUHU216HW,2013-04-24 02:48:00,
2013-04-23 19:53:00,50.8,14.0,30.12,SSE,158,1.1,2.5,23,0.00,,,0.00,WUHU216HW,2013-04-24 02:53:00,
2013-04-23 19:58:00,50.2,13.5,30.12,WNW,293,0.4,2.5,23,0.00,,,0.00,WUHU216HW,2013-04-24 02:58:00,
2013-04-23 20:03:00,49.9,13.2,30.12,North,0,2.5,2.5,23,0.00,,,0.00,WUHU216HW,2013-04-24 03:03:00,
2013-04-23 20:08:00,49.3,12.8,30.13,NNW,338,0.7,2.5,23,0.00,,,0.00,WUHU216HW,2013-04-24 03:08:00,
2013-04-23 20:13:00,49.1,13.5,30.13,West,270,0.9,2.5,24,0.00,,,0.00,WUHU216HW,2013-04-24 03:13:00,
2013-04-23 20:18:00,49.0,13.3,30.13,NE,45,0.9,2.0,24,0.00,,,0.00,WUHU216HW,2013-04-24 03:18:00,
2013-04-23 20:23:00,49.0,13.3,30.13,SW,225,1.1,1.3,24,0.00,,,0.00,WUHU216HW,2013-04-24 03:23:00,
2013-04-23 20:28:00,48.8,14.1,30.14,West,270,0.2,1.1,25,0.00,,,0.00,WUHU216HW,2013-04-24 03:28:00,
2013-04-23 20:33:00,48.6,14.0,30.14,SW,225,0.2,1.1,25,0.00,,,0.00,WUHU216HW,2013-04-24 03:33:00,
2013-04-23 20:39:00,48.4,13.9,30.14,North,0,4.7,4.7,25,0.00,,,0.00,WUHU216HW,2013-04-24 03:39:00,
2013-04-23 20:44:00,48.2,13.7,30.14,SSE,158,0.4,4.7,25,0.00,,,0.00,WUHU216HW,2013-04-24 03:44:00,
2013-04-23 20:49:00,47.9,13.4,30.14,NNW,338,0.4,2.2,25,0.00,,,0.00,WUHU216HW,2013-04-24 03:49:00,
2013-04-23 20:54:00,47.7,13.2,30.14,North,0,0.4,1.8,25,0.00,,,0.00,WUHU216HW,2013-04-24 03:54:00,
2013-04-23 20:59:00,47.3,12.9,30.15,North,0,0.4,3.4,25,0.00,,,0.00,WUHU216HW,2013-04-24 03:59:00,
2013-04-23 21:01:00,47.2,12.8,30.15,NW,315,0.4,3.4,25,0.00,,,0.00,WUHU216HW,2013-04-24 04:01:00,
2013-04-23 21:07:00,47.0,12.6,30.15,North,0,0.0,0.4,25,0.00,,,0.00,WUHU216HW,2013-04-24 04:07:00,
2013-04-23 21:12:00,46.6,14.1,30.15,NW,315,1.1,1.1,27,0.00,,,0.00,WUHU216HW,2013-04-24 04:12:00,
2013-04-23 21:17:00,46.4,14.0,30.16,NNW,338,0.4,1.1,27,0.00,,,0.00,WUHU216HW,2013-04-24 04:17:00,
2013-04-23 21:22:00,46.1,13.7,30.16,NW,315,0.4,1.8,27,0.00,,,0.00,WUHU216HW,2013-04-24 04:22:00,
2013-04-23 21:27:00,45.7,13.3,30.17,North,0,0.4,1.8,27,0.00,,,0.00,WUHU216HW,2013-04-24 04:27:00,
2013-04-23 21:32:00,45.5,14.1,30.17,NW,315,0.4,0.4,28,0.00,,,0.00,WUHU216HW,2013-04-24 04:32:00,
2013-04-23 21:37:00,45.4,14.0,30.17,NNW,338,1.6,2.0,28,0.00,,,0.00,WUHU216HW,2013-04-24 04:37:00,
2013-04-23 21:42:00,45.0,13.7,30.17,North,0,2.0,2.2,28,0.00,,,0.00,WUHU216HW,2013-04-24 04:42:00,
2013-04-23 21:47:00,44.8,13.5,30.17,NE,45,1.8,2.2,28,0.00,,,0.00,WUHU216HW,2013-04-24 04:47:00,
2013-04-23 21:52:00,44.8,12.6,30.17,NNE,23,0.7,2.5,27,0.00,,,0.00,WUHU216HW,2013-04-24 04:52:00,
2013-04-23 21:57:00,44.6,13.3,30.17,North,0,0.7,2.5,28,0.00,,,0.00,WUHU216HW,2013-04-24 04:57:00,
2013-04-23 22:02:00,44.5,13.1,30.17,North,0,0.7,3.8,28,0.00,,,0.00,WUHU216HW,2013-04-24 05:02:00,
2013-04-23 22:07:00,44.3,13.0,30.17,NNE,23,0.7,3.8,28,0.00,,,0.00,WUHU216HW,2013-04-24 05:07:00,
2013-04-23 22:12:00,44.1,12.9,30.17,ENE,68,1.8,2.9,28,0.00,,,0.00,WUHU216HW,2013-04-24 05:12:00,
2013-04-23 22:17:00,43.9,12.7,30.18,North,0,0.4,2.5,28,0.00,,,0.00,WUHU216HW,2013-04-24 05:17:00,
2013-04-23 22:22:00,43.6,13.2,30.17,NE,45,0.7,1.1,29,0.00,,,0.00,WUHU216HW,2013-04-24 05:22:00,
2013-04-23 22:27:00,43.4,13.1,30.17,NW,315,0.4,0.9,29,0.00,,,0.00,WUHU216HW,2013-04-24 05:27:00,
2013-04-23 22:32:00,43.2,13.0,30.17,WNW,293,0.4,0.9,29,0.00,,,0.00,WUHU216HW,2013-04-24 05:32:00,
2013-04-23 22:37:00,42.8,12.6,30.17,North,0,0.4,0.9,29,0.00,,,0.00,WUHU216HW,2013-04-24 05:37:00,
2013-04-23 22:42:00,42.5,12.3,30.17,North,0,0.7,1.6,29,0.00,,,0.00,WUHU216HW,2013-04-24 05:42:00,
2013-04-23 22:47:00,42.3,12.2,30.17,NNW,338,0.4,1.6,29,0.00,,,0.00,WUHU216HW,2013-04-24 05:47:00,
2013-04-23 22:52:00,42.1,13.0,30.17,NNW,338,1.3,1.3,30,0.00,,,0.00,WUHU216HW,2013-04-24 05:52:00,
2013-04-23 22:57:00,41.8,12.6,30.17,NNW,338,0.9,1.3,30,0.00,,,0.00,WUHU216HW,2013-04-24 05:57:00,
2013-04-23 23:02:00,41.8,12.6,30.17,NNW,338,0.2,0.9,30,0.00,,,0.00,WUHU216HW,2013-04-24 06:02:00,
2013-04-23 23:07:00,41.6,13.1,30.17,NNW,338,0.4,0.7,31,0.00,,,0.00,WUHU216HW,2013-04-24 06:07:00,
2013-04-23 23:12:00,41.4,13.0,30.17,North,0,0.2,1.1,31,0.00,,,0.00,WUHU216HW,2013-04-24 06:12:00,
2013-04-23 23:17:00,41.2,12.9,30.17,NW,315,0.7,2.2,31,0.00,,,0.00,WUHU216HW,2013-04-24 06:17:00,
2013-04-23 23:22:00,41.0,13.3,30.17,North,0,1.1,2.2,32,0.00,,,0.00,WUHU216HW,2013-04-24 06:22:00,
2013-04-23 23:27:00,40.7,13.1,30.17,NNE,23,2.0,2.2,32,0.00,,,0.00,WUHU216HW,2013-04-24 06:27:00,
2013-04-23 23:32:00,40.5,13.5,30.17,North,0,0.4,2.0,33,0.00,,,0.00,WUHU216HW,2013-04-24 06:32:00,
2013-04-23 23:37:00,40.5,13.5,30.17,NNW,338,1.1,1.8,33,0.00,,,0.00,WUHU216HW,2013-04-24 06:37:00,
2013-04-23 23:42:00,40.5,13.5,30.18,North,0,2.5,2.5,33,0.00,,,0.00,WUHU216HW,2013-04-24 06:42:00,
2013-04-23 23:47:00,40.7,13.7,30.18,North,0,1.3,2.5,33,0.00,,,0.00,WUHU216HW,2013-04-24 06:47:00,
2013-04-23 23:52:00,40.5,13.5,30.18,North,0,1.6,2.2,33,0.00,,,0.00,WUHU216HW,2013-04-24 06:52:00,
2013-04-23 23:57:00,40.5,13.5,30.18,NNW,338,0.7,2.2,33,0.00,,,0.00,WUHU216HW,2013-04-24 06:57:00,